Location: ????????
(55.0559°N, 39.1270°E)
Time: 01:33:30
(UTC+00:00)

Cosmos 1891 Rocket - Pass Details

Date: 15 November 2025
Orbit: 932 x 1018 km, 82.9° (Epoch: 12 December)

Event Time Altitude Azimuth Distance (km) Brightness Sun altitude
Rises 02:27:08 0° 348° (NNW) 3,750 7.4 -20.9°
Reaches altitude 10° 02:29:41 10° 348° (NNW) 2,786 6.7 -20.5°
Maximum altitude 02:36:06 87° 263° (W) 996 4.4 -19.6°
Drops below altitude 10° 02:42:21 10° 173° (S) 2,710 7.0 -18.7°
Sets 02:44:49 0° 173° (S) 3,640 7.7 -18.4°
